Location: Breungeshain
(50.5000°N, 9.2000°E)
Time: 17:42:58
(UTC+00:00)

ISS - Pass Details

Date: 25 May 2018
Orbit: 402 x 407 km, 51.6° (Epoch: 25 May)

Event Time Altitude Azimuth Distance (km) Brightness Sun altitude
Rises 23:11:41 0° 285° (WNW) 2,321 0.2 -18.4°
Reaches altitude 10° 23:13:46 10° 283° (WNW) 1,460 -0.8 -18.4°
Maximum altitude 23:17:02 76° 199° (SSW) 420 -4.0 -18.4°
Enters shadow 23:17:14 71° 158° (SSE) 429 -4.0 -18.4°
